• Join FlightAware (Why Join?)
  • Login
  • US Flag GB Flag 
10:03 EST


 

Airport Tracker/Info


-or-


 

Live Flight TrackerFlight Track Log ✈ SWA378 ✈ 02-May-2013 ✈ KATL - KORF

Flight Track Log - Related Links

Times and Time Zones

All times are in EDT time to prevent confusion due to time zone crossing. See the SWA378 flight status page for this flight to view local times or setup timezone preferences in your user account.

Time Position Orientation Groundspeed Altitude Reporting Facility
EDT Latitude Longitude Course Direction KTS MPH feet Rate Location/Type
18:38 33.6333 -84.3833 90° East 173 199 3,900  Level Atlanta TRACON
18:39 33.6333 -84.3000 90° East 254 292 7,000 2,700 Climbing Atlanta TRACON
18:42 33.6356 -84.0661 89° East 300 345 13,500 2,940 Climbing Atlanta Center
18:43 33.6419 -83.9539 86° East 320 368 17,300 2,880 Climbing Atlanta Center
18:44 33.6500 -83.8342 85° East 342 394 19,300 2,280 Climbing Atlanta Center
18:45 33.6581 -83.7069 86° East 375 432 21,900 1,800 Climbing Atlanta Center
18:46 33.6869 -83.5744 75° East 395 455 23,000 1,380 Climbing Atlanta Center
18:47 33.7386 -83.4492 64° Northeast 410 472 24,700 1,860 Climbing Atlanta Center
18:48 33.7942 -83.3114 64° Northeast 415 478 26,800 1,800 Climbing Atlanta Center
18:49 33.8517 -83.1783 62° Northeast 429 494 28,400 1,200 Climbing Atlanta Center
18:50 33.9217 -83.0475 57° Northeast 445 512 29,300 1,320 Climbing Atlanta Center
18:51 33.9872 -82.9064 61° Northeast 462 532 31,100 1,980 Climbing Atlanta Center
18:52 34.0528 -82.7703 60° Northeast 470 541 33,300 1,980 Climbing Atlanta Center
18:53 34.1203 -82.6361 59° Northeast 470 541 35,100 1,740 Climbing Atlanta Center
18:54 34.1853 -82.5019 60° Northeast 463 533 36,800 1,560 Climbing Atlanta Center
18:55 34.2483 -82.3650 61° Northeast 463 533 38,300 1,080 Climbing Atlanta Center
18:56 34.3111 -82.2306 60° Northeast 463 533 39,000 300 Climbing Atlanta Center
18:57 34.3758 -82.1008 59° Northeast 463 533 39,000  Level Atlanta Center
18:58 34.4364 -81.9661 61° Northeast 458 527 39,000  Level Atlanta Center
18:59 34.5008 -81.8333 59° Northeast 458 527 39,000  Level Atlanta Center
19:00 34.5631 -81.7006 60° Northeast 452 520 39,000  Level Atlanta Center
19:01 34.6292 -81.5650 59° Northeast 452 520 39,000  Level Atlanta Center
19:02 34.6889 -81.4292 62° Northeast 452 520 39,000  Level Atlanta Center
19:03 34.7506 -81.2908 61° Northeast 452 520 39,000  Level Atlanta Center
19:04 34.8144 -81.1547 60° Northeast 457 526 39,000  Level Atlanta Center
19:05 34.8778 -81.0208 60° Northeast 457 526 39,000  Level Atlanta Center
19:06 34.9431 -80.8764 61° Northeast 471 542 39,000  Level Atlanta Center
19:07 35.0083 -80.7347 61° Northeast 465 535 39,000  Level Atlanta Center
19:08 35.0692 -80.5978 61° Northeast 460 529 39,000  Level Atlanta Center
19:10 35.2175 -80.2675 61° Northeast 461 531 39,000 -240 Level Washington Center
19:11 35.2794 -80.1261 62° Northeast 461 531 38,300 -900 Descending Washington Center
19:12 35.3450 -79.9897 59° Northeast 461 531 37,300 -660 Descending Washington Center
19:13 35.4064 -79.8478 62° Northeast 461 531 37,000 -360 Descending Washington Center
19:14 35.4658 -79.7031 63° Northeast 466 536 36,600 -720 Descending Washington Center
19:15 35.5064 -79.5519 72° East 466 536 35,600 -960 Descending Washington Center
19:16 35.5489 -79.3983 71° East 466 536 34,700 -900 Descending Washington Center
19:17 35.5869 -79.2469 73° East 466 536 33,800 -960 Descending Washington Center
19:18 35.6272 -79.0878 73° East 473 544 32,800 -1,020 Descending Washington Center
19:19 35.6669 -78.9361 72° East 473 544 31,800 -960 Descending Washington Center
19:20 35.7111 -78.7769 71° East 473 544 30,900 -960 Descending Washington Center
19:21 35.7506 -78.6197 73° East 473 544 29,900 -960 Descending Washington Center
19:22 35.7853 -78.4803 73° East 473 544 29,100 -480 Descending Washington Center
19:23 35.8244 -78.3281 72° East 468 539 29,000 -60 Descending Washington Center
19:24 35.8633 -78.1731 73° East 468 539 29,000  Level Washington Center
19:25 35.9019 -78.0228 72° East 468 539 29,000  Level Washington Center
19:26 35.9383 -77.8700 74° East 463 533 29,000 -1,560 Level Washington Center
19:27 35.9744 -77.7222 73° East 457 526 26,000 -3,000 Descending Washington Center
19:28 36.0331 -77.5878 62° Northeast 446 513 22,900 -2,580 Descending Washington Center
19:29 36.0956 -77.4633 58° Northeast 433 498 21,000 -1,020 Descending Washington Center
19:30 36.1536 -77.3411 60° Northeast 417 480 21,000  Level Washington Center
19:31 36.2117 -77.2189 59° Northeast 410 472 21,000 -840 Level Washington Center
19:32 36.2675 -77.0964 60° Northeast 404 465 19,400 -2,100 Descending Washington Center
19:33 36.3083 -77.0122 59° Northeast 397 457 17,700 -2,700 Descending Washington Center
19:33 36.3211 -76.9789 65° Northeast 399 459 16,800 -2,640 Descending Washington Center
19:33 36.3575 -76.9047 59° Northeast 387 445 15,300 -2,280 Descending Washington Center
19:34 36.3767 -76.8689 56° Northeast 387 445 14,500 -2,280 Descending Washington Center
19:35 36.4444 -76.7822 46° Northeast 350 403 12,300 -1,920 Descending Washington Center
19:36 36.5036 -76.6953 50° Northeast 312 359 10,900 -1,380 Descending Washington Center
19:37 36.5564 -76.6236 47° Northeast 279 321 9,500 -1,080 Descending Washington Center
19:38 36.5922 -76.5647 53° Northeast 214 246 8,900 -1,140 Descending Washington Center
19:39 36.6325 -76.5056 50° Northeast 221 254 7,400 -1,500 Descending Washington Center
19:40 36.6683 -76.4542 49° Northeast 208 239 6,100 -1,200 Descending Washington Center
19:40 36.6747 -76.4439 52° Northeast 214 246 6,000 -1,140 Descending Washington Center
19:41 36.6978 -76.4131 47° Northeast 170 196 5,100 -1,440 Descending Washington Center
19:41 36.7083 -76.3950 54° Northeast 180 207 4,600 -1,200 Descending Washington Center
19:42 36.7253 -76.3719 47° Northeast 138 159 3,900 -1,320 Descending Washington Center
19:42 36.7336 -76.3564 56° Northeast 154 177 3,300 -1,440 Descending Washington Center
19:43 36.7525 -76.3386 37° Northeast 138 159 2,500 -900 Descending Washington Center
19:43 36.7733 -76.3206 35° Northeast 123 142 2,000 -540 Descending Washington Center
19:44 36.8008 -76.2922 40° Northeast 121 139 1,600 -420 Descending Washington Center